Regional Weather Roundup
Issued by NWS Cleveland, OH

Home | Current Version | Previous Version | Text Only | Print | Product List | Glossary Off
Versions: 1 2 3 4 5 6 7 8 9 10 11 12 13 14 15 16 17 18 19 20 21 22 23 24 25 26 27 28 29 30 31 32 33 34 35 36 37 38 39 40 41 42 43 44 45 46 47 48 49 50

000
ASUS41 KCLE 120700
RWRCLE
OHIO REGIONAL WEATHER ROUNDUP
NATIONAL WEATHER SERVICE WILMINGTON, OH
300 AM EDT SAT JUL 12 2014

NOTE: "FAIR" INDICATES FEW OR NO CLOUDS BELOW 12,000 FEET WITH NO
SIGNIFICANT WEATHER AND/OR OBSTRUCTIONS TO VISIBILITY.

OHZ001>008-015>018-024>027-034-035-043-044-120800-
   NORTHWEST OHIO

CITY           SKY/WX    TMP DP  RH WIND       PRES   REMARKS
DEFIANCE       PTCLDY    66  60  81 CALM      30.16F
FINDLAY        CLOUDY    70  63  78 CALM      30.16F
TOLEDO EXPRESS CLOUDY    67  60  78 CALM      30.16F
TOLEDO METCALF CLOUDY    68  59  73 SE3       30.17F
LIMA           CLOUDY    71  64  78 CALM      30.17F
$$

OHZ009>014-019>023-028>033-038-089-120800-
   NORTHEAST OHIO

CITY           SKY/WX    TMP DP  RH WIND       PRES   REMARKS
CLE-HOPKINS    PTCLDY    65  54  67 SE5       30.20S
CLE-LAKEFRONT  PTCLDY    69  55  60 S7        30.17S
CUY CO. ARPT   NOT AVBL
LORAIN-ELYRIA  MOCLDY    68  57  68 S6        30.19F
ASHTABULA      MOCLDY    60  57  89 CALM      30.20S
AKRON-CANTON   MOCLDY    67  55  65 CALM      30.20F
WOOSTER        NOT AVBL
MANSFIELD      CLOUDY    66  59  78 SE3       30.20F
YOUNGSTOWN     CLOUDY    60  57  89 CALM      30.19F
$$

OHZ042-051>053-060>062-070>072-077>081-120800-
  SOUTHWEST OHIO

CITY           SKY/WX    TMP DP  RH WIND       PRES   REMARKS
CINC-COVINGTON CLEAR     64  58  80 CALM      30.17F
CINC-LUNKEN    PTCLDY    62  60  93 CALM      30.17F FOG
HAMILTON       PTCLDY    64  62  93 CALM      30.17F
DAYTON         NOT AVBL
WRIGHT-PAT AFB CLOUDY    67  62  82 NE2       30.18F
DAYTON GENERAL MOCLDY    70  61  73 CALM      30.17F
WILMINGTON     PTCLDY    63  60  90 SE3       30.18F
$$

OHZ036-037-039>041-045>050-054>059-063>069-073>076-082>088-120800-
  CENTRAL AND SOUTHEAST OHIO

CITY           SKY/WX    TMP DP  RH WIND       PRES   REMARKS
COLUMBUS       MOCLDY    69  59  70 CALM      30.18S
OSU AIRPORT    MOCLDY    69  59  70 CALM      30.17F
BOLTON FIELD   NOT AVBL
RICKENBACK AFB NOT AVBL
NEWARK         PTCLDY    62  60  93 CALM      30.19S
MARION         CLOUDY    67  61  81 CALM      30.18F
LANCASTER      PTCLDY    60  58  92 CALM      30.19S
ZANESVILLE     PTCLDY    64  60  87 CALM      30.19S
NEW PHILLY     PTCLDY    62  61  96 CALM      30.20F FOG
$$



USA.gov is the U.S. government's official web portal to all federal, state and local government web resources and services.